Tracking 30923 objects as of 1-Jul-2025
HD Live streaming from Space Station
objects crossing your sky now

ONEWEB-0395

Track ONEWEB-0395 now!
10-day predictions
ONEWEB-0395 is classified as:


NORAD ID: 50475
Int'l Code: 2021-132G
Perigee: 1,223.4 km
Apogee: 1,226.3 km
Inclination: 87.9 °
Period: 109.8 minutes
Semi major axis: 7595 km
RCS: Unknown
Launch date: December 27, 2021
Source: United Kingdom (UK)
Launch site: TYURATAM MISSILE AND SPACE COMPLEX (TTMTR)
Your satellite tracking list
Your tracking list is empty




NASA's NSSDC Master Catalog

Two Line Element Set (TLE):
1 50475U 21132G   25181.74412312  .00000476  00000-0  13070-2 0  9991
2 50475  87.8836  91.1376 0001897  67.2769 292.8559 13.11415939169656
Source of the keplerian elements: AFSPC